Iron Mountain, MI

4:50 AM CDT on May 25, 2017 (GMT -0500)
Ford

Weather History for KIMT - May, 2013

Change the Weather History Date:

Wednesday, May 15, 2013

  Actual Average Record
Temperature  
Mean Temperature 60 °F -  
Max Temperature 77 °F 66 °F 89 °F (1962)
Min Temperature 42 °F 40 °F 23 °F (1937)
Degree Days  
Heating Degree Days 6    
Growing Degree Days 10 (Base 50)    
Moisture  
Dew Point 37 °F    
Average Humidity 46    
Maximum Humidity 86    
Minimum Humidity 18    
Precipitation  
Precipitation 0.00 in - - ()
Sea Level Pressure  
Sea Level Pressure 29.70 in    
Wind  
Wind Speed 9 mph (NW)    
Max Wind Speed 23 mph    
Max Gust Speed 34 mph    
Visibility 10 miles    
Events      
Averages and records for this station are not official NWS values.
T = Trace of Precipitation, MM = Missing Value Source: NWS Daily Summary

Daily Weather History Graph

Daily Weather History Graph

Search for Another Location

Airport or City:

Trip Planner

Search our weather history database for the weather conditions in past years. The results will help you decide how hot, cold, wet, or windy it might be!

Date:

Astronomy

May. 15, 2013 Rise Set
Actual Time 5:20 AM CDT 8:17 PM CDT
Civil Twilight 4:45 AM CDT 8:52 PM CDT
Nautical Twilight 4:00 AM CDT 9:37 PM CDT
Astronomical Twilight 3:07 AM CDT 10:31 PM CDT
Moon 9:58 AM CDT (5/15) 12:01 AM CDT (5/15)
Length of Visible Light 16h 07m
Length of Day
14h 57m
Waxing Crescent, 27% of the Moon is Illuminated
May 15
Waxing Crescent
May 17
First Quarter
May 24
Full
May 31
Last Quarter
Jun 8
New

Hourly Weather History & Observations

Time (CDT) Temp. Windchill Dew Point Humidity Pressure Visibility Wind Dir Wind Speed Gust Speed Precip Events Conditions
12:54 AM 45.0 °F - 39.0 °F 80% 29.51 in 10.0 mi Calm Calm - N/A   Clear
1:54 AM 42.1 °F - 37.9 °F 85% 29.52 in 10.0 mi Calm Calm - N/A   Clear
2:54 AM 42.1 °F - 37.9 °F 85% 29.54 in 10.0 mi Calm Calm - N/A   Clear
3:54 AM 43.0 °F 41.3 °F 39.0 °F 86% 29.56 in 10.0 mi NNW 3.5 mph - N/A   Clear
4:54 AM 46.9 °F - 41.0 °F 80% 29.59 in 10.0 mi NW 4.6 mph - N/A   Clear
5:54 AM 57.0 °F - 46.0 °F 67% 29.62 in 10.0 mi NW 21.9 mph 28.8 mph N/A   Clear
6:54 AM 59.0 °F - 44.1 °F 58% 29.67 in 10.0 mi NNW 21.9 mph 28.8 mph N/A   Clear
7:54 AM 61.0 °F - 43.0 °F 52% 29.69 in 10.0 mi NW 12.7 mph 21.9 mph N/A   Clear
8:54 AM 64.9 °F - 41.0 °F 42% 29.72 in 10.0 mi WNW 18.4 mph 24.2 mph N/A   Clear
9:54 AM 66.9 °F - 37.9 °F 34% 29.74 in 10.0 mi NW 23.0 mph 28.8 mph N/A   Clear
10:54 AM 70.0 °F - 37.0 °F 30% 29.76 in 10.0 mi West 16.1 mph 25.3 mph N/A   Clear
11:54 AM 72.0 °F - 30.9 °F 22% 29.76 in 10.0 mi WNW 12.7 mph 26.5 mph N/A   Clear
12:54 PM 75.0 °F - 28.9 °F 18% 29.75 in 10.0 mi WNW 17.3 mph 28.8 mph N/A   Clear
1:54 PM 75.9 °F - 30.0 °F 19% 29.74 in 10.0 mi WNW 19.6 mph 34.5 mph N/A   Clear
2:54 PM 75.9 °F - 32.0 °F 20% 29.74 in 10.0 mi NNW 20.7 mph 27.6 mph N/A   Clear
3:54 PM 77.0 °F - 32.0 °F 19% 29.74 in 10.0 mi WNW 18.4 mph 28.8 mph N/A   Clear
4:54 PM 75.9 °F - 34.0 °F 22% 29.73 in 10.0 mi NW 20.7 mph 27.6 mph N/A   Clear
5:54 PM 75.0 °F - 33.1 °F 22% 29.74 in 10.0 mi NW 13.8 mph 25.3 mph N/A   Clear
6:54 PM 73.9 °F - 34.0 °F 23% 29.74 in 10.0 mi WNW 11.5 mph 20.7 mph N/A   Clear
7:54 PM 69.1 °F - 37.0 °F 31% 29.75 in 10.0 mi NW 6.9 mph - N/A   Clear
8:54 PM 63.0 °F - 36.0 °F 37% 29.76 in 10.0 mi Calm Calm - N/A   Clear
9:54 PM 55.0 °F - 37.9 °F 53% 29.78 in 10.0 mi Calm Calm - N/A   Clear
10:54 PM 52.0 °F - 37.9 °F 59% 29.78 in 10.0 mi Calm Calm - N/A   Partly Cloudy
11:54 PM 53.1 °F - 39.0 °F 59% 29.78 in 10.0 mi Calm Calm - N/A   Partly Cloudy